Home   Weather   Regensdorf   Past weeks

Flag for Switzerland Past Weather in Regensdorf, Zurich, Switzerland — Yesterday and Last 2 Weeks

Now
25 °F

Cold.


Feels Like: 10 °F
Forecast: 19 / 25 °F
Wind: 20 mph from Northeast

Location: Zurich-Kloten

Current Time: Jan 17, 2017 at 9:53:06 am

Latest Report: Jan 17, 2017 at 9:00 am


Visibility: N/A

Pressure: 30.43 "Hg

Humidity: 72%

Dew Point: 17 °F

Location of RegensdorfLocation

Past Weather in Regensdorf — Graph

°F

Regensdorf Temperature Yesterday

Maximum temperature yesterday: 29 °F (at 12:00 pm)
Minimum temperature yesterday: 21 °F (at 7:00 am)
Average temperature yesterday: 26 °F

High & Low Weather Summary for the Past Weeks

 TemperatureHumidityPressure
High43 °F (Jan 13, 2:00 am)100% (Jan 3, 5:00 am)30.76 "Hg (Jan 3, 5:00 am)
Low5 °F (Jan 7, 5:00 am)47% (Jan 7, 2:00 am)29.53 "Hg (Jan 13, 1:00 am)
Average28 °F84%30.25 "Hg
* Reported Jan 2 8:00 am — Jan 17 8:00 am, Regensdorf, Weather by CustomWeather, © 2017

Note: Actual official high and low records may vary slightly from our data, if they occured in-between our weather recording intervals... More about our weather records

Advertising

Regensdorf Weather History for the Previous 24 Hours

Scroll right to see more
 ConditionsComfort  
Time TempWeatherWind HumidityBarometerVisibility
8:00 am
Tue, Jan 17
25 °FChilly.14 mph73%30.41 "HgN/A
7:00 am26 °FOvercast.14 mph73%30.39 "Hg47 mi
6:00 am26 °FChilly.15 mph73%30.37 "HgN/A
5:00 am26 °FChilly.9 mph76%30.37 "HgN/A
4:00 am25 °FOvercast.12 mph75%30.36 "Hg9 mi
3:00 am25 °FChilly.12 mph75%30.36 "HgN/A
2:00 am24 °FCold.14 mph79%30.35 "HgN/A
1:00 am25 °FSnow flurries. Overcast.13 mph77%30.35 "Hg3 mi
12:00 am25 °FCold.12 mph76%30.34 "HgN/A
11:00 pm
Mon, Jan 16
25 °FCold.14 mph75%30.34 "HgN/A
10:00 pm25 °FOvercast.14 mph69%30.33 "Hg7 mi
9:00 pm26 °FChilly.12 mph68%30.32 "HgN/A
8:00 pm25 °FChilly.14 mph65%30.31 "HgN/A
7:00 pm26 °FPassing clouds.10 mph64%30.29 "Hg10 mi
6:00 pm28 °FChilly.10 mph66%30.27 "HgN/A
5:00 pm28 °FChilly.7 mph79%30.26 "HgN/A
4:00 pm29 °FOvercast.8 mph71%30.25 "Hg10 mi
3:00 pm29 °FChilly.9 mph69%30.24 "HgN/A
2:00 pm29 °FChilly.9 mph69%30.23 "HgN/A
1:00 pm29 °FSnow flurries. Partly sunny.7 mph70%30.24 "Hg12 mi
12:00 pm29 °FChilly.6 mph70%30.24 "HgN/A
11:00 am25 °FChilly.2 mph87%30.26 "HgN/A
10:00 am25 °FSnow flurries. Low clouds.2 mph90%30.26 "Hg5 mi
9:00 am24 °FCold.2 mph92%30.25 "HgN/A
Weather by CustomWeather, © 2017

See weather overviewHow to use our weather pages